sat.trackr.live / text

‹ back to catalog

CHECKMATE 3

NORAD 56169 · 2023-050H

PAYLOAD ACTIVE UNKNOWN

§ Identity

Operator
Country
US
Launch date
2023-04-02
Launch site
AFWTR
Launch vehicle
Mass (kg)
RCS (m²)

External: N2YO · Heavens-Above · Gunter

§ Orbital elements

Epoch: 2026-05-24T23:28:54.397632Z

Period
103.96 min
Inclination
81.0018°
Eccentricity
0.0007726
Mean motion
13.85146537 rev/d
Perigee alt
940.0 km
Apogee alt
951.3 km
Semi-major
7,323.8 km
B*
2.3970e-5
RAAN
93.6742°
Arg perigee
24.3867°
Mean anomaly
335.7654°
Rev number
15,890

§ Raw data

CHECKMATE 31 56169U 23050H   26144.97840738  .00000038  00000+0  23970-4 0  99952 56169  81.0018  93.6742 0007726  24.3867 335.7654 13.85146537158909

JSON: /api/v1/satellites/56169 · /tle

For live sub-satellite position, see the globe view (requires WebGL).

§ Visibility from observer

Set your observer location to see the next 7 days of passes ≥ 10°. The values pass through the URL so the page stays shareable.

No JS? Fill the form by hand. The geolocation button needs JavaScript.